N3PL Weather Reports


Display with metric or nautical units.
time (UTC)temp
F
wind
direction
speed
MPH
gust
MPH
rain 1hr
in
rain 24hr
in
rain mn
in
humidity
%
barometer
mb
20260901225604 84 11 0.0 0.0 0.00 0.00 0.05 75 1008.4
20260901225106 84 11 0.0 0.0 0.00 0.00 0.05 75 1008.4
20260901224558 85 11 0.0 0.0 0.00 0.00 0.05 75 1008.4
20260901224058 85 11 0.0 0.0 0.00 0.00 0.05 74 1008.3
20260901223600 85 11 0.0 0.0 0.00 0.00 0.05 74 1008.3
20260901223103 85 11 0.0 0.0 0.00 0.00 0.05 74 1008.3
20260901222551 85 11 0.0 0.0 0.00 0.00 0.05 72 1008.4
20260901222054 85 11 0.0 0.0 0.00 0.00 0.05 71 1008.4
20260901221544 86 11 0.0 0.0 0.00 0.00 0.05 70 1008.4
20260901221044 86 11 0.0 0.0 0.00 0.00 0.05 69 1008.3
20260901220547 86 11 0.0 0.0 0.00 0.00 0.05 68 1008.3
20260901220059 87 11 0.0 0.0 0.00 0.00 0.05 68 1008.3
20260901215603 87 11 0.0 0.0 0.00 0.00 0.05 67 1008.4
20260901215003 87 11 0.0 0.0 0.00 0.00 0.05 66 1008.4
20260901214508 87 11 0.0 0.0 0.00 0.00 0.05 66 1008.4
20260901214014 87 11 0.0 0.0 0.00 0.00 0.05 66 1008.4
20260901213605 87 11 0.0 0.0 0.00 0.00 0.05 66 1008.4
20260901213005 87 11 0.0 0.0 0.00 0.00 0.05 65 1008.4
20260901212507 87 11 0.0 0.0 0.00 0.00 0.05 65 1008.4
20260901212100 87 11 0.0 0.0 0.00 0.00 0.05 65 1008.4
20260901211603 88 11 0.0 0.0 0.00 0.00 0.05 65 1008.4
20260901211107 88 11 0.0 0.0 0.00 0.00 0.05 65 1008.4
20260901210502 87 11 0.0 0.0 0.00 0.00 0.05 65 1008.4
20260901210006 87 11 0.0 0.0 0.00 0.00 0.05 65 1008.4
20260901205600 87 11 0.0 0.0 0.00 0.00 0.05 65 1008.6
20260901205104 87 11 0.0 0.0 0.00 0.00 0.05 64 1008.6
20260901204606 87 11 0.0 0.0 0.00 0.00 0.05 65 1008.6
20260901204006 87 11 0.0 0.0 0.00 0.00 0.05 65 1008.8
20260901203559 87 11 0.0 0.0 0.00 0.00 0.05 65 1008.8
20260901203105 87 11 0.0 0.0 0.00 0.00 0.04 65 1008.8
20260901202606 87 11 0.0 0.0 0.00 0.00 0.04 65 1009.0
20260901202002 87 294 0.0 0.0 0.00 0.00 0.04 65 1009.0
20260901201556 87 294 0.0 0.0 0.00 0.00 0.04 65 1009.0
20260901201100 87 294 0.0 0.0 0.00 0.00 0.04 65 1008.9
20260901200503 87 263 0.0 0.0 0.00 0.00 0.04 65 1008.9
20260901200006 87 261 0.0 0.0 0.00 0.00 0.04 63 1008.9
20260901195559 87 261 0.0 0.0 0.00 0.00 0.04 64 1009.1
20260901195102 87 261 0.0 0.0 0.00 0.00 0.04 63 1009.1
20260901194616 87 261 0.0 0.0 0.00 0.00 0.04 64 1009.1
20260901194004 87 261 0.0 0.0 0.00 0.00 0.04 64 1009.2
20260901193557 87 244 0.0 0.0 0.00 0.00 0.04 63 1009.2
20260901193110 87 244 0.0 0.0 0.00 0.00 0.04 63 1009.2
20260901192602 87 244 0.0 0.0 0.00 0.00 0.04 63 1009.4
20260901192106 87 251 0.0 0.0 0.00 0.00 0.04 65 1009.4
20260901191503 87 251 0.0 0.0 0.00 0.00 0.04 65 1009.4
20260901191055 87 251 0.0 0.0 0.00 0.00 0.04 65 1009.4
20260901190603 87 251 0.0 0.0 0.00 0.00 0.04 66 1009.4
20260901190107 87 251 0.0 0.0 0.00 0.00 0.04 66 1009.4
20260901185559 87 251 0.0 0.0 0.00 0.00 0.04 65 1009.7
20260901185008 87 251 0.0 0.0 0.00 0.00 0.04 65 1009.7
20260901184600 87 251 0.0 0.0 0.00 0.00 0.04 66 1009.7
20260901184103 87 251 0.0 0.0 0.00 0.00 0.04 65 1009.8
20260901183605 87 251 0.0 0.0 0.00 0.00 0.04 64 1009.8
20260901183003 87 229 0.0 0.0 0.00 0.00 0.04 64 1009.8
20260901182507 87 229 0.0 0.0 0.00 0.00 0.04 63 1009.7
20260901182100 87 160 0.0 0.0 0.00 0.00 0.04 64 1009.7
20260901181550 87 157 0.0 0.0 0.00 0.00 0.04 65 1009.7
20260901181049 87 157 0.0 0.0 0.00 0.00 0.04 64 1009.8
20260901180552 87 216 0.0 0.0 0.00 0.00 0.04 63 1009.8
20260901180100 87 216 0.0 0.0 0.00 0.00 0.04 65 1009.8
20260901175603 86 216 0.0 0.0 0.00 0.00 0.04 66 1009.9
20260901175106 85 216 0.0 0.0 0.00 0.00 0.04 68 1009.9
20260901174554 85 216 0.0 0.0 0.00 0.00 0.04 68 1009.9
20260901174059 85 216 0.0 0.0 0.00 0.00 0.04 72 1010.0
20260901173601 84 154 0.0 0.0 0.00 0.00 0.04 73 1010.0
20260901173107 83 154 0.0 0.0 0.00 0.00 0.04 75 1010.0
20260901172555 83 154 0.0 0.0 0.00 0.00 0.03 80 1010.4
20260901172059 82 154 0.0 0.0 0.00 0.00 0.03 81 1010.4
20260901171611 81 154 0.0 0.0 0.00 0.00 0.03 83 1010.4
20260901171004 81 154 0.0 0.0 0.00 0.00 0.03 87 1010.6
20260901170557 80 154 0.0 0.0 0.00 0.00 0.03 86 1010.6
20260901170047 80 154 0.0 0.0 0.00 0.00 0.03 84 1010.6
20260901165549 80 154 0.0 0.0 0.00 0.00 0.03 84 1010.8
20260901165052 80 154 0.0 0.0 0.00 0.00 0.03 83 1010.8
20260901164601 80 154 0.0 0.0 0.00 0.00 0.03 82 1010.8
20260901164103 80 154 0.0 0.0 0.00 0.00 0.03 82 1011.0
20260901163606 80 154 0.0 0.0 0.00 0.00 0.03 82 1011.0
20260901163053 80 154 0.0 0.0 0.00 0.00 0.03 82 1011.0
20260901162558 80 154 0.0 0.0 0.00 0.00 0.03 82 1011.0
20260901162100 80 154 0.0 0.0 0.00 0.00 0.03 81 1011.0
20260901161603 80 154 0.0 0.0 0.00 0.00 0.03 81 1011.0
20260901161001 80 154 0.0 0.0 0.00 0.00 0.03 81 1011.0
20260901160511 80 154 0.0 0.0 0.00 0.00 0.03 80 1011.0
20260901160119 81 154 0.0 0.0 0.00 0.00 0.03 80 1011.0
20260901155503 81 154 0.0 0.0 0.00 0.00 0.03 79 1010.9
20260901155007 81 154 0.0 0.0 0.00 0.00 0.03 78 1010.9
20260901154601 81 154 0.0 0.0 0.00 0.00 0.03 77 1010.9
20260901154003 82 154 0.0 0.0 0.00 0.00 0.03 76 1011.0
20260901153508 82 154 0.0 0.0 0.00 0.00 0.03 74 1011.0
20260901153059 82 154 0.0 0.0 0.00 0.00 0.03 73 1011.0
20260901152546 82 154 0.0 0.0 0.00 0.00 0.03 73 1011.0
20260901152049 83 154 0.0 0.0 0.00 0.00 0.03 74 1011.0
20260901151554 82 154 0.0 0.0 0.00 0.00 0.03 75 1011.0
20260901151100 82 154 0.0 0.0 0.00 0.00 0.03 76 1011.1
20260901150605 81 154 0.0 0.0 0.00 0.00 0.03 77 1011.1
20260901150107 80 154 0.0 0.0 0.00 0.00 0.03 78 1011.1
20260901145506 80 154 0.0 0.0 0.00 0.00 0.02 81 1011.2
20260901145008 79 154 0.0 0.0 0.00 0.00 0.02 84 1011.2
20260901144517 78 154 0.0 0.0 0.00 0.00 0.02 85 1011.2
20260901144104 78 154 0.0 0.0 0.00 0.00 0.02 86 1011.2
20260901143506 77 154 0.0 0.0 0.00 0.00 0.02 88 1011.2
20260901143009 77 154 0.0 0.0 0.00 0.00 0.02 90 1011.2
20260901142601 77 154 0.0 0.0 0.00 0.00 0.02 92 1011.4
20260901142104 76 154 0.0 0.0 0.00 0.00 0.02 93 1011.4
20260901141500 76 154 0.0 0.0 0.00 0.00 0.02 94 1011.4
20260901141003 76 154 0.0 0.0 0.00 0.00 0.02 95 1011.2
20260901140507 75 154 0.0 0.0 0.00 0.00 0.02 95 1011.2
20260901140108 75 154 0.0 0.0 0.00 0.00 0.02 95 1011.2
20260901135605 75 154 0.0 0.0 0.00 0.00 0.02 96 1011.1
20260901135007 75 154 0.0 0.0 0.00 0.00 0.02 96 1011.1
20260901134558 75 154 0.0 0.0 0.00 0.00 0.02 96 1011.1
20260901134050 75 154 0.0 0.0 0.00 0.00 0.02 97 1011.1
20260901133549 74 154 0.0 0.0 0.00 0.00 0.02 97 1011.1
20260901133053 75 154 0.0 0.0 0.00 0.00 0.02 97 1011.1
20260901132556 75 154 0.0 0.0 0.00 0.00 0.02 97 1011.3
20260901132005 74 154 0.0 0.0 0.00 0.00 0.02 98 1011.3
20260901131507 74 154 0.0 0.0 0.00 0.00 0.02 98 1011.3
20260901131100 74 154 0.0 0.0 0.00 0.00 0.02 98 1011.5
20260901130605 74 154 0.0 0.0 0.00 0.00 0.02 98 1011.5
20260901130002 74 154 0.0 0.0 0.00 0.00 0.02 98 1011.5
20260901125504 74 154 0.0 0.0 0.00 0.00 0.02 98 1011.5
20260901125058 74 154 0.0 0.0 0.00 0.00 0.02 98 1011.5
20260901124601 74 154 0.0 0.0 0.00 0.00 0.02 99 1011.5
20260901124107 73 154 0.0 0.0 0.00 0.00 0.02 99 1011.5
20260901123506 73 154 0.0 0.0 0.00 0.00 0.02 99 1011.5
20260901123119 73 154 0.0 0.0 0.00 0.00 0.02 99 1011.5
20260901122603 73 154 0.0 0.0 0.00 0.00 0.02 99 1011.4
20260901122004 72 154 0.0 0.0 0.00 0.00 0.02 99 1011.4
20260901121507 72 154 0.0 0.0 0.00 0.00 0.02 99 1011.4
20260901121101 72 154 0.0 0.0 0.00 0.00 0.02 99 1011.8
20260901120548 71 154 0.0 0.0 0.00 0.00 0.02 99 1011.8
20260901120055 71 154 0.0 0.0 0.00 0.00 0.02 99 1011.8
20260901115555 70 154 0.0 0.0 0.00 0.00 0.02 98 1011.7
20260901115103 70 154 0.0 0.0 0.00 0.00 0.02 98 1011.7
20260901114605 70 154 0.0 0.0 0.00 0.00 0.02 98 1011.7
20260901114003 70 154 0.0 0.0 0.00 0.00 0.02 98 1011.5
20260901113505 70 154 0.0 0.0 0.00 0.00 0.02 98 1011.5
20260901113106 70 154 0.0 0.0 0.00 0.00 0.02 98 1011.5
20260901112602 69 154 0.0 0.0 0.00 0.00 0.02 98 1011.7
20260901112105 69 154 0.0 0.0 0.00 0.00 0.02 98 1011.7
20260901111502 69 154 0.0 0.0 0.00 0.00 0.02 98 1011.7
20260901111008 69 154 0.0 0.0 0.00 0.00 0.02 98 1011.6
20260901110558 69 154 0.0 0.0 0.00 0.00 0.02 98 1011.6
20260901110114 69 154 0.0 0.0 0.00 0.00 0.02 98 1011.6
20260901105607 69 154 0.0 0.0 0.00 0.00 0.02 98 1011.6
20260901105056 69 154 0.0 0.0 0.00 0.00 0.02 98 1011.6
20260901104601 69 154 0.0 0.0 0.00 0.00 0.02 98 1011.6
20260901104002 69 154 0.0 0.0 0.00 0.00 0.02 98 1011.5
20260901103554 69 154 0.0 0.0 0.00 0.00 0.02 97 1011.5
20260901103106 69 154 0.0 0.0 0.00 0.00 0.02 98 1011.5
20260901102603 70 154 0.0 0.0 0.00 0.00 0.02 98 1011.4
20260901102106 70 154 0.0 0.0 0.00 0.00 0.02 98 1011.4
20260901101554 70 154 0.0 0.0 0.00 0.00 0.01 98 1011.4
20260901101101 69 154 0.0 0.0 0.00 0.00 0.01 97 1011.3
20260901100604 70 154 0.0 0.0 0.00 0.00 0.01 97 1011.3
20260901100002 70 154 0.0 0.0 0.00 0.00 0.01 98 1011.3
20260901095504 70 154 0.0 0.0 0.00 0.00 0.01 97 1011.4
20260901095008 70 154 0.0 0.0 0.00 0.00 0.01 97 1011.4
20260901094511 70 154 0.0 0.0 0.00 0.00 0.01 97 1011.4
20260901094104 70 154 0.0 0.0 0.00 0.00 0.01 97 1011.3
20260901093502 70 154 0.0 0.0 0.00 0.00 0.01 98 1011.3
20260901093105 70 154 0.0 0.0 0.00 0.00 0.01 98 1011.3
20260901092602 70 154 0.0 0.0 0.00 0.00 0.01 98 1011.6
20260901092106 70 154 0.0 0.0 0.00 0.00 0.01 97 1011.6
20260901091559 69 154 0.0 0.0 0.00 0.00 0.01 97 1011.6
20260901091055 70 154 0.0 0.0 0.00 0.00 0.01 98 1011.7
20260901090605 69 154 0.0 0.0 0.00 0.00 0.01 97 1011.7
20260901090104 69 154 0.0 0.0 0.00 0.00 0.01 97 1011.7
20260901085501 69 154 0.0 0.0 0.00 0.00 0.01 97 1011.7
20260901085005 69 154 0.0 0.0 0.00 0.00 0.01 97 1011.7
20260901084508 69 154 0.0 0.0 0.00 0.00 0.01 97 1011.7
20260901084101 69 154 0.0 0.0 0.00 0.00 0.01 97 1011.6
20260901083605 70 154 0.0 0.0 0.00 0.00 0.01 97 1011.6
20260901083002 69 154 0.0 0.0 0.00 0.00 0.01 97 1011.6
20260901082506 69 154 0.0 0.0 0.00 0.00 0.01 97 1011.7
20260901082058 69 154 0.0 0.0 0.00 0.00 0.01 97 1011.7
20260901081603 69 154 0.0 0.0 0.00 0.00 0.01 97 1011.7
20260901081048 70 154 0.0 0.0 0.00 0.00 0.01 97 1011.6
20260901080551 70 154 0.0 0.0 0.00 0.00 0.01 97 1011.6
20260901080058 70 154 0.0 0.0 0.00 0.00 0.01 97 1011.6
20260901075558 70 154 0.0 0.0 0.00 0.00 0.01 97 1011.6
20260901075107 70 154 0.0 0.0 0.00 0.00 0.01 97 1011.6
20260901074502 70 154 0.0 0.0 0.00 0.00 0.01 97 1011.6
20260901074005 70 154 0.0 0.0 0.00 0.00 0.01 97 1011.7
20260901073559 70 154 0.0 0.0 0.00 0.00 0.01 97 1011.7
20260901073103 70 154 0.0 0.0 0.00 0.00 0.01 97 1011.7
20260901072606 70 154 0.0 0.0 0.00 0.00 0.01 97 1011.8
20260901072006 69 154 0.0 0.0 0.00 0.00 0.01 97 1011.8
20260901071557 70 154 0.0 0.0 0.00 0.00 0.01 97 1011.8
20260901071059 70 154 0.0 0.0 0.00 0.00 0.01 97 1011.9
20260901070602 70 154 0.0 0.0 0.00 0.00 0.01 97 1011.9
20260901070002 70 154 0.0 0.0 0.00 0.00 0.00 97 1011.9
20260901065506 70 154 0.0 0.0 0.00 0.00 0.00 97 1012.1
20260901065010 70 154 0.0 0.0 0.00 0.00 0.00 97 1012.1
20260901064512 70 154 0.0 0.0 0.00 0.00 0.00 97 1012.1
20260901064106 70 154 0.0 0.0 0.00 0.00 0.00 97 1012.2
20260901063554 70 154 0.0 0.0 0.00 0.00 0.00 97 1012.2
20260901063058 70 154 0.0 0.0 0.00 0.00 0.00 97 1012.2
20260901062559 69 154 0.0 0.0 0.00 0.00 0.00 96 1012.4
20260901062103 70 154 0.0 0.0 0.00 0.00 0.00 96 1012.4
20260901061610 70 154 0.0 0.0 0.00 0.00 0.00 96 1012.4
20260901061004 70 154 0.0 0.0 0.00 0.00 0.00 96 1012.4
20260901060506 70 154 0.0 0.0 0.00 0.00 0.00 96 1012.4
20260901055505 70 154 0.0 0.0 0.00 0.00 0.00 96 1012.5
20260901055008 70 154 0.0 0.0 0.00 0.00 0.00 96 1012.5
20260901054609 70 154 0.0 0.0 0.00 0.00 0.00 96 1012.5
20260901054003 70 154 0.0 0.0 0.00 0.00 0.00 96 1012.6
20260901053509 70 154 0.0 0.0 0.00 0.00 0.00 96 1012.6
20260901053117 70 154 0.0 0.0 0.00 0.00 0.00 96 1012.6
20260901052605 70 154 0.0 0.0 0.00 0.00 0.00 96 1012.8
20260901052004 70 154 0.0 0.0 0.00 0.00 0.00 96 1012.8
20260901051507 70 154 0.0 0.0 0.00 0.00 0.00 96 1012.8
20260901051101 70 154 0.0 0.0 0.00 0.00 0.00 96 1013.0
20260901050604 70 154 0.0 0.0 0.00 0.00 0.00 96 1013.0
20260901050001 70 154 0.0 0.0 0.00 0.00 0.00 96 1013.0
20260901045505 70 154 0.0 0.0 0.00 0.00 0.00 96 1013.1
20260901045058 70 154 0.0 0.0 0.00 0.00 0.00 96 1013.1
20260901044621 70 154 0.0 0.0 0.00 0.00 0.00 96 1013.1
20260901044105 70 154 0.0 0.0 0.00 0.00 0.00 96 1013.2
20260901043505 70 154 0.0 0.0 0.00 0.00 0.00 95 1013.2
20260901043007 70 154 0.0 0.0 0.00 0.00 0.00 95 1013.2
20260901042509 70 154 0.0 0.0 0.00 0.00 0.00 95 1013.1
20260901042103 70 154 0.0 0.0 0.00 0.00 0.00 95 1013.1
20260901041607 70 154 0.0 0.0 0.00 0.00 0.00 95 1013.1
20260901041003 70 154 0.0 0.0 0.00 0.00 0.00 95 1013.3
20260901040506 70 154 0.0 0.0 0.00 0.00 0.00 95 1013.3
20260901040059 70 154 0.0 0.0 0.00 0.00 0.00 95 1013.3
20260901035602 70 154 0.0 0.0 0.00 0.00 0.09 95 1013.5
20260901035107 70 154 0.0 0.0 0.00 0.00 0.09 94 1013.5
20260901034503 70 154 0.0 0.0 0.00 0.00 0.09 94 1013.5
20260901034007 70 154 0.0 0.0 0.00 0.00 0.09 94 1013.3
20260901033600 70 154 0.0 0.0 0.00 0.00 0.09 94 1013.3
20260901033103 70 154 0.0 0.0 0.00 0.00 0.09 94 1013.3
20260901032606 70 154 0.0 0.0 0.00 0.00 0.09 93 1013.5
20260901032004 70 154 0.0 0.0 0.00 0.00 0.09 93 1013.5
20260901031600 70 154 0.0 0.0 0.00 0.00 0.09 93 1013.5
20260901031104 70 154 0.0 0.0 0.00 0.00 0.09 93 1013.6
20260901030501 70 154 0.0 0.0 0.00 0.00 0.09 93 1013.6
20260901030100 70 154 0.0 0.0 0.00 0.00 0.09 92 1013.6
20260901025607 70 154 0.0 0.0 0.00 0.00 0.09 92 1013.5
20260901025004 70 154 0.0 0.0 0.00 0.00 0.09 92 1013.5
20260901024607 70 154 0.0 0.0 0.00 0.00 0.08 92 1013.5
20260901024105 70 154 0.0 0.0 0.00 0.00 0.08 92 1013.4
20260901023503 70 154 0.0 0.0 0.00 0.00 0.08 92 1013.4
20260901023005 70 154 0.0 0.0 0.00 0.00 0.08 91 1013.4
20260901022559 71 154 0.0 0.0 0.00 0.00 0.08 91 1013.7
20260901022103 71 154 0.0 0.0 0.00 0.00 0.08 91 1013.7
20260901021605 71 154 0.0 0.0 0.00 0.00 0.08 91 1013.7
20260901021004 71 154 0.0 0.0 0.00 0.00 0.08 91 1013.5
20260901020507 71 154 0.0 0.0 0.00 0.00 0.08 90 1013.5
20260901015605 71 154 0.0 0.0 0.00 0.00 0.08 90 1013.4
20260901015004 71 154 0.0 0.0 0.00 0.00 0.08 90 1013.4
20260901014559 71 154 0.0 0.0 0.00 0.00 0.08 89 1013.4
20260901014100 71 154 0.0 0.0 0.00 0.00 0.08 89 1013.3
20260901013605 72 154 0.0 0.0 0.00 0.00 0.08 88 1013.3
20260901013000 72 154 0.0 0.0 0.00 0.00 0.08 88 1013.3
20260901012509 72 154 0.0 0.0 0.00 0.00 0.08 88 1013.4
20260901012057 72 154 0.0 0.0 0.00 0.00 0.08 87 1013.4
20260901011607 72 154 0.0 0.0 0.00 0.00 0.08 87 1013.4
20260901011104 72 154 0.0 0.0 0.00 0.00 0.08 86 1013.3
20260901010555 72 154 0.0 0.0 0.00 0.00 0.08 86 1013.3
20260901010058 73 154 0.0 0.0 0.00 0.00 0.08 85 1013.3
20260901005601 73 154 0.0 0.0 0.00 0.00 0.08 85 1013.3
20260901005103 73 154 0.0 0.0 0.00 0.00 0.08 85 1013.3
20260901004514 73 154 0.0 0.0 0.00 0.00 0.08 84 1013.3
20260901004059 73 154 0.0 0.0 0.00 0.00 0.08 84 1013.1
20260901003604 73 154 0.0 0.0 0.00 0.00 0.08 84 1013.1
20260901003003 73 154 0.0 0.0 0.00 0.00 0.08 83 1013.1
20260901002504 74 154 0.0 0.0 0.00 0.00 0.08 82 1012.9
20260901002100 74 154 0.0 0.0 0.00 0.00 0.08 82 1012.9
20260901001600 74 154 0.0 0.0 0.00 0.00 0.08 82 1012.9
20260901001102 74 154 0.0 0.0 0.00 0.00 0.08 82 1012.8
20260901000606 74 154 0.0 0.0 0.00 0.00 0.08 82 1012.8
20260901000051 74 154 0.0 0.0 0.00 0.00 0.07 81 1012.8
20260831235555 74 154 0.0 0.0 0.00 0.00 0.07 81 1013.0
20260831235058 74 154 0.0 0.0 0.00 0.00 0.07 80 1013.0
20260831234605 74 154 0.0 0.0 0.00 0.00 0.07 80 1013.0
20260831234055 74 154 0.0 0.0 0.00 0.00 0.07 79 1013.1
20260831233559 75 154 0.0 0.0 0.00 0.00 0.07 79 1013.1
20260831233104 75 154 0.0 0.0 0.00 0.00 0.07 79 1013.1
20260831232505 75 154 0.0 0.0 0.00 0.00 0.07 78 1013.2
20260831232008 75 154 0.0 0.0 0.00 0.00 0.07 78 1013.2
20260831231512 75 154 0.0 0.0 0.00 0.00 0.07 78 1013.2
20260831231015 75 154 0.0 0.0 0.00 0.00 0.07 79 1013.3
20260831230505 75 154 0.0 0.0 0.00 0.00 0.07 80 1013.3
20260831230010 76 154 0.0 0.0 0.00 0.00 0.07 81 1013.3